Location: Bremen
(53.0793°N, 8.8017°E)
Time: 02:13:38
(UTC+01:00)

deb Explorer IX - Pass Details

Date: 10 December 2021
Orbit: 544 x 1082 km, 38.8° (Epoch: 16 January)

Event Time Altitude Azimuth Distance (km) Brightness Sun altitude
Rises 08:32:46 0° 219° (SW) 3,396 ? -0.2°
Reaches altitude 10° 08:36:51 10° 193° (SSW) 2,322 ? 0.2°
Maximum altitude 08:39:12 13° 167° (SSE) 2,045 ? 0.5°
Drops below altitude 10° 08:41:26 10° 141° (SE) 2,165 ? 0.8°
Sets 08:44:57 0° 113° (ESE) 2,964 ? 1.1°
